Regional Weather Roundup
Issued by NWS

Home | Current Version | Previous Version | Text Only | Print | Product List | Glossary Off
Versions: 1 2 3 4 5 6 7 8 9 10 11 12 13 14 15 16 17 18 19 20 21 22 23 24 25 26 27 28 29 30 31 32 33 34 35 36 37 38 39 40 41 42 43 44 45 46 47 48 49 50

427
ASUS43 KDMX 191201
RWRIA

WEATHER ROUNDUP FOR IOWA
NATIONAL WEATHER SERVICE DES MOINES IA
700 AM CDT THU APR 19 2018

NOTE: "FAIR" INDICATES FEW OR NO CLOUDS BELOW 12,000 FEET WITH NO
SIGNIFICANT WEATHER AND/OR OBSTRUCTIONS TO VISIBILITY.

* - THESE STATIONS ARE NOT NWS STATIONS...THUS NOT UNDER NWS
QUALITY CONTROL.  THEY ALSO DO NOT REPORT WEATHER SUCH
AS PRECIPITATION OR FOG.

IAZ001>003-012>014-020>022-031>034-043>046-191300-
   NORTHWEST IOWA

CITY           SKY/WX    TMP DP  RH WIND       PRES   REMARKS
CARROLL *      CLEAR     30  27  86 N9        30.37R WCI  22
CHEROKEE *     CLOUDY    26  23  88 N5        30.40R WCI  20
DENISON *      CLEAR     28  28 100 CALM      30.40R
LE MARS *      CLOUDY    25  21  86 NE7       30.41R WCI  17
ORANGE CITY *  CLOUDY    28  19  69 N3        30.40R
SHELDON *      CLOUDY    19  14  79 NE6       30.38R WCI  11
SIOUX CITY     CLEAR     28  25  88 NW5       30.41R WCI  23
6HR MIN TEMP:  28; 6HR MAX TEMP:  34;

SPENCER        CLOUDY    16  12  84 NW6       30.39R WCI   7
6HR MIN TEMP:  16; 6HR MAX TEMP:  32;

STORM LAKE *   CLOUDY    27  21  80 N12       30.37R WCI  16
$$

IAZ055>058-069>071-079>083-090>094-191300-
   SOUTHWEST IOWA

CITY           SKY/WX    TMP DP  RH WIND       PRES   REMARKS
ATLANTIC *     CLEAR     30  28  93 N5        30.38R WCI  25
AUDUBON *      CLEAR     28  27  93 CALM      30.38R
CLARINDA *     PTCLDY    27  25  93 CALM      30.40R
COUNCIL BLFS * CLEAR     30  30 100 NW6       30.39R WCI  24
CRESTON *      CLEAR     27  27 100 NW9       30.36R WCI  17
HARLAN  *      CLEAR     30  30 100 N6        30.42R WCI  24
LAMONI         CLEAR     26  24  92 NW7       30.34R WCI  18
6HR MIN TEMP:  26; 6HR MAX TEMP:  33;

RED OAK *      PTCLDY    25  25 100 CALM      30.39R
SHENANDOAH *   CLEAR     27  25  93 W5        30.41R WCI  21
$$

IAZ047>049-059>061-072>074-084-191300-
   CENTRAL IOWA

CITY           SKY/WX    TMP DP  RH WIND       PRES   REMARKS
AMES           CLEAR     29  25  85 N9        30.34R WCI  20
6HR MIN TEMP:  29; 6HR MAX TEMP:  35;

ANKENY *       CLEAR     32  27  80 N8        30.35R WCI  25
BOONE *        CLEAR     28  27  93 N10       30.33R WCI  19
CHARITON *     CLEAR     28  28 100 NW6       30.33R WCI  22
DES MOINES     PTCLDY    33  27  78 N8        30.34R WCI  26
6HR MIN TEMP:  31; 6HR MAX TEMP:  34;

GRINNELL*      CLEAR     30  27  90 N9        30.33R WCI  21
KNOXVILLE *    PTCLDY    32  28  86 N7        30.31R WCI  26
MARSHALLTOWN   CLOUDY    27  24  89 N8        30.33R WCI  19
6HR MIN TEMP:  25; 6HR MAX TEMP:  33;

NEWTON *       CLOUDY    30  28  93 N10       30.32R WCI  21
PELLA *        CLEAR     31  28  88 N6        30.34R WCI  25
$$

IAZ004>006-015-016-023>025-035-036-191300-
   NORTH CENTRAL IOWA

CITY           SKY/WX    TMP DP  RH WIND       PRES   REMARKS
ALGONA *       CLOUDY    21  16  79 N6        30.37R WCI  14
CLARION *      CLOUDY    18  14  86 N6        30.36R WCI   9
ESTHERVILLE    CLOUDY    13   8  81 NW8       30.38R WCI   2
6HR MIN TEMP:  13; 6HR MAX TEMP:  29;

FORT DODGE *   CLOUDY    27  21  78 N5        30.37R WCI  22
MASON CITY     CLOUDY    17  14  88 N7        30.37R WCI   8
6HR MIN TEMP:  15; 6HR MAX TEMP:  30;

FOREST CITY *  FAIR      25  21  86 N5        30.37R WCI  19
WEBSTER CITY * CLEAR     25  23  93 N9        30.34R WCI  15
IOWA FALLS *   FAIR      24  22  91 W5        30.35R WCI  18
$$

IAZ007>011-017>019-026>030-037>042-050>054-066-191300-
   NORTHEAST IOWA

CITY           SKY/WX    TMP DP  RH WIND       PRES   REMARKS
CEDAR RAPIDS   FAIR      30  27  88 N8        30.31R WCI  22
6HR MIN TEMP:  28; 6HR MAX TEMP:  33;

CHARLES CITY * FAIR      19  19 100 N9        30.35R WCI   9
CLINTON *      FAIR      29  27  92 N12       30.30R WCI  19
DECORAH *      FAIR      25  21  86 NW5       30.32R WCI  19
DUBUQUE        FAIR      27  22  81 N7        30.30R WCI  19
6HR MIN TEMP:  24; 6HR MAX TEMP:  32;

MONTICELLO *   FAIR      27  25  93 CALM      30.31R
OELWEIN *      FAIR      19  19 100 N7        30.34R WCI  10
WATERLOO       FAIR      22  19  89 CALM      30.34R
6HR MIN TEMP:  21; 6HR MAX TEMP:  32;

$$

IAZ064-065-067-068-078-191300-
   EAST CENTRAL IOWA

CITY           SKY/WX    TMP DP  RH WIND       PRES   REMARKS
DAVENPORT      FAIR      30  28  92 NW8       30.31R WCI  22
6HR MIN TEMP:  30; 6HR MAX TEMP:  32;

IOWA CITY      FAIR      33  29  85 N6        30.33R WCI  28
6HR MIN TEMP:  33; 6HR MAX TEMP:  35;

MT. PLEASANT * CLOUDY    32  30  93 N8        30.31R WCI  25
MUSCATINE *    FAIR      34  30  86 N7        30.32R WCI  28
QUAD CITIES    FAIR      35  30  82 NW10      30.29R WCI  27
6HR MIN TEMP:  33; 6HR MAX TEMP:  35;

$$

IAZ062-063-075>077-085>089-095>099-191300-
   SOUTHEAST IOWA

CITY           SKY/WX    TMP DP  RH WIND       PRES   REMARKS
BURLINGTON     CLOUDY    35  30  82 NW9       30.29R WCI  28
6HR MIN TEMP:  33; 6HR MAX TEMP:  35;

FAIRFIELD *    CLOUDY    30  28  93 N9        30.30R WCI  22
FORT MADISON * CLOUDY    34  30  86 N8        30.31R WCI  27
KEOKUK *       CLOUDY    34  30  86 N9        30.30R WCI  26
OSKALOOSA *    FAIR      30  28  92 N9        30.32R WCI  22
CENTERVILLE *    N/A     28  28 100 CALM      30.33R
OTTUMWA        CLEAR     31  27  85 N10       30.31R WCI  22
6HR MIN TEMP:  30; 6HR MAX TEMP:  33;

WASHINGTON *   PTCLDY    32  32 100 N8        30.32R WCI  25
$$

ABBREVIATIONS USED IN REMARKS
   TC - TEMPERATURES IN CELSIUS
  WCI - WIND CHILL INDEX
   HX - HEAT INDEX
  VSB - VISIBILITY
$$





USA.gov is the U.S. government's official web portal to all federal, state and local government web resources and services.